When you browse on this site, cookies collect data to enhance your experience and personalize the content and advertising you see.
Visit our Privacy Policy to learn more. By continuing to use the site, you agree to this use of cookies and data.
  • In Hungary
  • List of Countries
  • For 7 days
  • Water Temperature
  • Weather Map
  • News
  • Weather Widgets
  • user-avatar
    Login

    Hourly Weather Yasynove

    Today, 14 December, Saturday

    Time Temperature Precipitation Wind Pressure Humidity
    00:00 -2°C° 0 mm 5 mps 738 mmHg 87%
    01:00 -1°C° 0 mm 5 mps 738 mmHg 87%
    02:00 -1°C° 0 mm 5 mps 737 mmHg 87%
    03:00 -1°C° 0.1 mm 5 mps 737 mmHg 88%
    04:00 -1°C° 0.1 mm 4 mps 737 mmHg 90%
    05:00 0°C° 0.1 mm 4 mps 736 mmHg 91%
    06:00 0°C° 0.1 mm 4 mps 736 mmHg 92%
    07:00 0°C° 0.1 mm 4 mps 736 mmHg 92%
    08:00 0°C° 0.1 mm 4 mps 737 mmHg 93%
    09:00 0°C° 0 mm 4 mps 737 mmHg 94%
    10:00 +1°C° 0 mm 4 mps 737 mmHg 94%
    11:00 +1°C° 0 mm 4 mps 737 mmHg 94%
    12:00 +3°C° 0 mm 3 mps 737 mmHg 95%
    13:00 +4°C° 0 mm 3 mps 737 mmHg 95%
    14:00 +4°C° 0 mm 3 mps 737 mmHg 96%
    15:00 +5°C° 0 mm 3 mps 737 mmHg 96%
    16:00 +6°C° 0 mm 2 mps 737 mmHg 96%
    17:00 +6°C° 0 mm 2 mps 738 mmHg 96%
    18:00 +5°C° 0 mm 3 mps 738 mmHg 96%
    19:00 +5°C° 0 mm 3 mps 738 mmHg 96%
    20:00 +5°C° 0 mm 3 mps 739 mmHg 95%
    21:00 +5°C° 0 mm 4 mps 739 mmHg 95%
    22:00 +5°C° 0 mm 4 mps 739 mmHg 95%
    23:00 +4°C° 0 mm 4 mps 739 mmHg 95%

    Tomorrow, 15 December, Sunday

    Time Temperature Precipitation Wind Pressure Humidity
    00:00 +4°C° 0 mm 4 mps 739 mmHg 95%
    01:00 +4°C° 0 mm 4 mps 739 mmHg 96%
    02:00 +4°C° 0 mm 3 mps 739 mmHg 96%
    03:00 +4°C° 0 mm 3 mps 739 mmHg 96%
    04:00 +4°C° 0 mm 3 mps 738 mmHg 96%
    05:00 +4°C° 0 mm 3 mps 738 mmHg 96%
    06:00 +4°C° 1 mm 3 mps 739 mmHg 97%
    07:00 +4°C° 1 mm 3 mps 739 mmHg 97%
    08:00 +5°C° 1 mm 3 mps 739 mmHg 97%
    09:00 +5°C° 2.2 mm 4 mps 740 mmHg 96%
    10:00 +5°C° 2.2 mm 4 mps 740 mmHg 95%
    11:00 +5°C° 2.2 mm 4 mps 740 mmHg 94%
    12:00 +5°C° 0.3 mm 4 mps 741 mmHg 86%
    13:00 +6°C° 0.3 mm 5 mps 741 mmHg 79%
    14:00 +6°C° 0.3 mm 5 mps 742 mmHg 72%
    15:00 +5°C° 0 mm 4 mps 743 mmHg 75%
    16:00 +4°C° 0 mm 4 mps 743 mmHg 77%
    17:00 +3°C° 0 mm 3 mps 744 mmHg 80%
    18:00 +3°C° 0 mm 3 mps 745 mmHg 81%
    19:00 +2°C° 0 mm 3 mps 745 mmHg 82%
    20:00 +3°C° 0 mm 2 mps 746 mmHg 83%
    21:00 +3°C° 0 mm 2 mps 747 mmHg 80%
    22:00 +2°C° 0 mm 3 mps 747 mmHg 77%
    23:00 +2°C° 0 mm 3 mps 747 mmHg 75%

    Day after tomorrow, 16 December, Monday

    Time Temperature Precipitation Wind Pressure Humidity
    00:00 +2°C° 0 mm 3 mps 748 mmHg 75%
    01:00 +1°C° 0 mm 3 mps 748 mmHg 75%
    02:00 +1°C° 0 mm 3 mps 748 mmHg 74%
    03:00 +1°C° 0 mm 3 mps 748 mmHg 74%
    04:00 +1°C° 0 mm 4 mps 748 mmHg 74%
    05:00 +1°C° 0 mm 4 mps 748 mmHg 73%
    06:00 +1°C° 0 mm 4 mps 749 mmHg 74%
    07:00 +1°C° 0 mm 4 mps 749 mmHg 74%
    08:00 +1°C° 0 mm 4 mps 749 mmHg 74%
    09:00 +3°C° 0 mm 4 mps 750 mmHg 71%
    10:00 +4°C° 0 mm 4 mps 750 mmHg 68%
    11:00 +5°C° 0 mm 4 mps 750 mmHg 65%
    12:00 +5°C° 0 mm 4 mps 750 mmHg 64%
    13:00 +7°C° 0 mm 3 mps 750 mmHg 63%
    14:00 +7°C° 0 mm 3 mps 749 mmHg 63%
    15:00 +5°C° 0 mm 3 mps 749 mmHg 67%
    16:00 +5°C° 0 mm 3 mps 749 mmHg 71%
    17:00 +4°C° 0 mm 3 mps 749 mmHg 75%
    18:00 +4°C° 0 mm 3 mps 749 mmHg 78%
    19:00 +3°C° 0 mm 3 mps 750 mmHg 80%
    20:00 +3°C° 0 mm 4 mps 750 mmHg 83%
    21:00 +3°C° 0 mm 3 mps 750 mmHg 87%
    22:00 +3°C° 0 mm 3 mps 750 mmHg 90%
    23:00 +3°C° 0 mm 3 mps 750 mmHg 94%

    17 December, Tuesday

    Time Temperature Precipitation Wind Pressure Humidity
    00:00 +3°C° 0 mm 3 mps 750 mmHg 94%
    01:00 +3°C° 0 mm 4 mps 749 mmHg 95%
    02:00 +3°C° 0 mm 4 mps 749 mmHg 95%
    03:00 +3°C° 0 mm 4 mps 749 mmHg 96%
    04:00 +3°C° 0 mm 4 mps 749 mmHg 96%
    05:00 +3°C° 0 mm 4 mps 749 mmHg 96%
    06:00 +3°C° 0 mm 4 mps 749 mmHg 97%
    07:00 +4°C° 0 mm 4 mps 749 mmHg 97%
    08:00 +3°C° 0 mm 5 mps 749 mmHg 97%
    09:00 +5°C° 0 mm 5 mps 749 mmHg 95%
    10:00 +5°C° 0 mm 5 mps 749 mmHg 94%
    11:00 +6°C° 0 mm 5 mps 749 mmHg 93%
    12:00 +6°C° 0 mm 5 mps 749 mmHg 91%
    13:00 +6°C° 0 mm 5 mps 748 mmHg 90%
    14:00 +7°C° 0 mm 5 mps 748 mmHg 88%
    15:00 +7°C° 0 mm 5 mps 748 mmHg 88%
    16:00 +7°C° 0 mm 4 mps 748 mmHg 88%
    17:00 +7°C° 0 mm 4 mps 748 mmHg 88%
    18:00 +7°C° 0 mm 4 mps 748 mmHg 89%
    19:00 +7°C° 0 mm 4 mps 748 mmHg 90%
    20:00 +8°C° 0 mm 3 mps 748 mmHg 91%
    21:00 +6°C° 0 mm 4 mps 748 mmHg 93%
    22:00 +5°C° 0 mm 4 mps 748 mmHg 94%
    23:00 +5°C° 0 mm 4 mps 748 mmHg 96%

    18 December, Wednesday

    Time Temperature Precipitation Wind Pressure Humidity
    00:00 +5°C° 0 mm 4 mps 748 mmHg 96%
    01:00 +5°C° 0 mm 4 mps 748 mmHg 96%
    02:00 +5°C° 0 mm 5 mps 748 mmHg 96%
    03:00 +5°C° 0 mm 5 mps 748 mmHg 96%
    04:00 +5°C° 0 mm 5 mps 747 mmHg 96%
    05:00 +5°C° 0 mm 5 mps 747 mmHg 96%
    06:00 +5°C° 0 mm 5 mps 747 mmHg 96%
    07:00 +5°C° 0 mm 5 mps 747 mmHg 95%
    08:00 +5°C° 0 mm 5 mps 747 mmHg 95%
    09:00 +6°C° 0 mm 4 mps 747 mmHg 92%
    10:00 +6°C° 0 mm 4 mps 747 mmHg 88%
    11:00 +7°C° 0 mm 4 mps 747 mmHg 85%
    12:00 +7°C° 0 mm 4 mps 747 mmHg 81%
    13:00 +8°C° 0 mm 4 mps 747 mmHg 77%
    14:00 +10°C° 0 mm 4 mps 747 mmHg 73%
    15:00 +8°C° 0 mm 4 mps 747 mmHg 77%
    16:00 +8°C° 0 mm 3 mps 747 mmHg 81%
    17:00 +7°C° 0 mm 3 mps 747 mmHg 85%
    18:00 +7°C° 0 mm 3 mps 746 mmHg 86%
    19:00 +7°C° 0 mm 3 mps 746 mmHg 88%
    20:00 +5°C° 0 mm 3 mps 746 mmHg 89%
    21:00 +5°C° 0 mm 3 mps 746 mmHg 89%
    22:00 +5°C° 0 mm 3 mps 746 mmHg 90%
    23:00 +5°C° 0 mm 3 mps 746 mmHg 91%

    19 December, Thursday

    Time Temperature Precipitation Wind Pressure Humidity
    00:00 +5°C° 0 mm 3 mps 746 mmHg 91%
    01:00 +4°C° 0 mm 3 mps 746 mmHg 91%
    02:00 +4°C° 0 mm 3 mps 746 mmHg 91%
    03:00 +4°C° 0 mm 3 mps 746 mmHg 91%
    04:00 +4°C° 0 mm 3 mps 745 mmHg 90%
    05:00 +4°C° 0 mm 3 mps 745 mmHg 90%
    06:00 +3°C° 0 mm 3 mps 745 mmHg 90%
    07:00 +3°C° 0 mm 3 mps 745 mmHg 89%
    08:00 +3°C° 0 mm 3 mps 745 mmHg 89%
    09:00 +4°C° 0 mm 3 mps 745 mmHg 84%
    10:00 +7°C° 0 mm 3 mps 744 mmHg 79%
    11:00 +8°C° 0 mm 3 mps 744 mmHg 75%
    12:00 +8°C° 0 mm 3 mps 744 mmHg 74%
    13:00 +9°C° 0 mm 3 mps 743 mmHg 73%
    14:00 +10°C° 0 mm 3 mps 743 mmHg 73%
    15:00 +9°C° 0 mm 2 mps 743 mmHg 78%
    16:00 +8°C° 0 mm 2 mps 743 mmHg 83%
    17:00 +7°C° 0 mm 2 mps 743 mmHg 88%
    18:00 +6°C° 0 mm 2 mps 742 mmHg 88%
    19:00 +7°C° 0 mm 1 mps 742 mmHg 89%
    20:00 +6°C° 0 mm 1 mps 742 mmHg 90%
    21:00 +6°C° 0 mm 1 mps 742 mmHg 89%
    22:00 +6°C° 0 mm 1 mps 742 mmHg 88%
    23:00 +5°C° 0 mm 1 mps 742 mmHg 87%
    Show more